This is the latest recevied weather packets stored in our database for station/object KN6WGU. If no packets are shown the sender has not sent any weather packets the latest 10 day(s).
| Time | Temp. | Humidity | Pressure | Rain* | Wind** | Luminosity | Snow |
|---|---|---|---|---|---|---|---|
| 1787836370 | 20.56° C | 95% | 1006.9 hPa | 0 mm | - | 55 W/m² | - |
| 1787836066 | 20.56° C | 96% | 1007 hPa | 0 mm | - | 64 W/m² | - |
| 1787835762 | 20.56° C | 97% | 1006.9 hPa | 0 mm | - | 56 W/m² | - |
| 1787835456 | 20.56° C | 97% | 1007 hPa | 0 mm | - | 56 W/m² | - |
| 1787835152 | 20° C | 98% | 1007 hPa | 0 mm | - | 58 W/m² | - |
| 1787834851 | 20° C | 98% | 1006.9 hPa | 0 mm | - | 53 W/m² | - |
| 1787834546 | 20° C | 99% | 1006.9 hPa | 0 mm | - | 48 W/m² | - |
| 1787834241 | 20° C | 99% | 1006.8 hPa | 0 mm | - | 47 W/m² | - |
| 1787833937 | 19.44° C | 99% | 1006.9 hPa | 0 mm | - | 47 W/m² | - |
| 1787833632 | 19.44° C | 99% | 1006.7 hPa | 0 mm | - | 44 W/m² | - |
| 1787833328 | 19.44° C | 99% | 1006.5 hPa | 0 mm | - | 46 W/m² | - |
| 1787833028 | 19.44° C | 99% | 1006.6 hPa | 0 mm | - | 54 W/m² | - |
| 1787832724 | 18.89° C | 99% | 1006.7 hPa | 0 mm | - | 48 W/m² | - |
| 1787832422 | 18.89° C | 99% | 1006.5 hPa | 0 mm | - | 40 W/m² | - |
| 1787832122 | 18.89° C | 99% | 1006.4 hPa | 0 mm | - | 36 W/m² | - |
| 1787831820 | 18.89° C | 99% | 1006.7 hPa | 0 mm | - | 33 W/m² | - |
| 1787831516 | 18.89° C | 99% | 1006.6 hPa | 0 mm | - | 29 W/m² | - |
| 1787831214 | 18.89° C | 99% | 1006.4 hPa | 0 mm | - | 24 W/m² | - |
| 1787830910 | 18.89° C | 99% | 1006.4 hPa | 0 mm | - | 23 W/m² | - |
| 1787830610 | 18.89° C | 99% | 1006.3 hPa | 0 mm | - | 20 W/m² | - |
| 1787830309 | 18.89° C | 99% | 1006.4 hPa | 0 mm | - | 22 W/m² | - |
| 1787830004 | 18.33° C | 99% | 1006.2 hPa | 0 mm | - | 20 W/m² | - |
| 1787829704 | 18.33° C | 99% | 1006.3 hPa | 0 mm | - | 15 W/m² | - |
| 1787829399 | 18.33° C | 99% | 1006.3 hPa | 0 mm | - | 12 W/m² | - |
| 1787829096 | 17.78° C | 99% | 1006.2 hPa | 0 mm | - | 10 W/m² | - |
* Rain latest hour (hover to see other rain measurements)
** Current wind speed in m/s (hover to see current wind gust speed)